Location: Shenandoah County Park
(38.9356°N, 78.4524°W)
Time: 07:30:33
(UTC-04:00)

SR - Pass Details

Date: 09 February 2023
Orbit: 583 x 866 km, 66.7° (Epoch: 28 March)

Event Time Altitude Azimuth Distance (km) Brightness Sun altitude
Rises 14:36:51 0° 258° (WSW) 3,171 ? 28.6°
Reaches altitude 10° 14:40:32 10° 284° (WNW) 2,182 ? 28.2°
Maximum altitude 14:42:58 14° 314° (NW) 1,903 ? 27.9°
Drops below altitude 10° 14:45:21 10° 344° (NNW) 2,096 ? 27.6°
Sets 14:48:46 0° 11° (N) 2,950 ? 27.2°
